Latest Coastal Weather Observations for Wilsons Promontory

IDT60701

Issued at 4:52 am EST Thursday 3 September 2026 (issued every 10 minutes, with the page automatically refreshed every 10 minutes)

About coastal observations | Map of coastal stations | Coastal observations for TAS | Marine services | Other Formats
Station Details ID: 085096 Name: WILSONS PROMONTORY LIGHTHOUSE Lat: -39.13 Lon: 146.42 Height: 95.0 m
Data from the previous 72 hours. | See also: Recent months at Wilsons Promontory
Date/Time
EST
Wind Sea
Height
m
Swell Vis
km
Cloud Weather Temp
°C
Press
MSL
hPa
Rain since
9am
mm
Dir  Spd
kts
Gust
kts
Height
m
Period
s
Dir
03/04:31am WNW 15 38 - - - - - - - 11.3 1005.3 0.0
03/04:30am WNW 15 38 - - - - - - - 11.3 1005.5 0.0
03/04:21am WNW 15 31 - - - - - - - 11.3 1005.1 0.0
03/04:00am NW 8 24 - - - - - - - 11.2 1005.1 0.0
03/03:50am NNW 8 16 - - - - - - - 11.3 1005.2 0.0
03/03:47am NNW 12 32 - - - - - - - 11.3 1005.1 0.0
03/03:42am NNE 10 32 - - - - - - - 11.3 - 0.0
03/03:39am NW 22 32 - - - - - - - 11.4 - 0.0
03/03:37am NW 10 29 - - - - - - - 11.3 1005.8 0.0
03/03:30am WNW 9 18 - - - - - - - 11.2 1005.6 0.0
03/03:04am NW 8 20 - - - - - - - 11.2 1006.2 0.0
03/03:00am NW 11 29 - - - - - - - 11.2 1006.3 0.0
03/02:53am NNW 10 29 - - - - - - - 11.2 1006.1 0.0
03/02:30am NW 8 23 - - - - - - - 11.4 1006.7 0.0
03/02:00am NNW 7 19 - - - - - - - 11.6 1006.9 0.0
03/01:30am NW 9 22 - - - - - - - 11.6 1007.2 0.0
03/01:21am NW 9 18 - - - - - - - 11.6 1007.2 0.0
03/01:11am WNW 12 26 - - - - - - - 11.6 1007.0 0.0
03/01:10am W 15 26 - - - - - - - 11.6 - 0.0
03/01:00am W 10 19 - - - - - - - 11.5 1007.1 0.0
03/12:30am W 9 22 - - - - - - - 11.6 1007.4 0.0
03/12:00am W 9 20 - - - - - - - 11.7 1007.9 0.0
 
Date/Time
EST
Wind Sea
Height
m
Swell Vis
km
Cloud Weather Temp
°C
Press
MSL
hPa
Rain since
9am
mm
Dir  Spd
kts
Gust
kts
Height
m
Period
s
Dir
02/11:30pm WNW 14 26 - - - - - - - 12.0 1008.1 0.0
02/11:29pm WNW 14 26 - - - - - - - 12.0 1008.1 0.0
02/11:00pm WNW 22 32 - - - - - - - 12.1 1008.2 0.0
02/10:30pm WNW 22 32 - - - - - - - 12.3 1008.5 0.0
02/10:00pm W 21 34 - - - - - - - 12.4 1008.5 0.0
02/09:30pm W 20 30 - - - - - - - 12.3 1009.1 0.0
02/09:13pm W 17 28 - - - - - - - 12.4 1009.4 0.0
02/09:00pm W 17 23 - - - - - - - 12.4 1009.7 0.0
02/08:59pm W 17 23 - - - - - - - 12.4 1009.7 0.0
02/08:48pm W 17 27 - - - - - - - 12.4 1009.8 0.0
02/08:38pm W 18 25 - - - - - - - 12.4 1009.7 0.0
02/08:30pm W 16 24 - - - - - - - 12.4 1009.8 0.0
02/08:09pm W 15 26 - - - - - - - 12.3 1009.7 0.0
02/08:00pm W 14 22 - - - - - - - 12.2 1009.8 0.0
02/07:30pm W 13 20 - - - - - - - 12.1 1009.7 0.0
02/07:00pm WNW 11 18 - - - - - - - 12.1 1009.9 0.0
02/06:30pm W 14 24 - - - - - - - 12.3 1009.8 0.0
02/06:28pm WNW 14 24 - - - - - - - 12.3 1009.8 0.0
02/06:15pm W 15 26 - - - - - - - 12.3 1009.7 0.0
02/06:00pm W 13 21 - - - - - - - 12.3 1009.7 0.0
02/05:46pm W 16 24 - - - - - - - 12.3 1009.6 0.0
02/05:30pm W 17 29 - - - - - - - 12.3 1009.6 0.0
02/05:00pm W 18 28 - - - - - - - 12.5 1009.5 0.0
02/04:56pm W 18 28 - - - - - - - 12.6 1009.7 0.0
02/04:55pm W 19 28 - - - - - - - 12.6 1009.6 0.0
02/04:33pm W 20 30 - - - - - - - 12.7 1009.8 0.0
02/04:30pm W 21 29 - - - - - - - 13.0 1009.9 0.0
02/04:17pm W 18 27 - - - - - - - 13.1 1010.0 0.0
02/04:00pm W 20 30 - - - - - - - 13.0 1010.1 0.0
02/03:42pm W 21 31 - - - - - - - 13.2 1010.2 0.0
02/03:34pm W 22 31 - - - - - - - 13.1 1010.1 0.0
02/03:30pm W 22 31 - - - - - - - 13.1 1009.8 0.0
02/03:17pm W 26 36 - - - - - - - 13.0 1009.8 0.0
02/03:15pm W 27 36 - - - - - - - 13.0 1009.8 0.0
02/03:00pm W 24 35 - - - - - - - 13.1 1009.8 0.0
02/02:51pm W 25 35 - - - - - - - 13.1 1009.6 0.0
02/02:33pm W 23 32 - - - - - - - 13.0 1010.1 0.0
02/02:30pm W 23 32 - - - - - - - 13.0 1010.1 0.0
02/02:06pm W 25 35 - - - - - - - 12.9 1010.0 0.0
02/02:00pm W 22 33 - - - - - - - 13.0 1010.2 0.0
02/01:56pm W 21 33 - - - - - - - 13.1 1010.4 0.0
02/01:53pm W 21 31 - - - - - - - 13.2 1010.6 0.0
02/01:41pm W 27 37 - - - - - - - 12.9 - 0.0
02/01:38pm W 23 37 - - - - - - - 12.9 1010.3 0.0
02/01:30pm W 19 29 - - - - - - - 13.1 1011.0 0.0
02/01:00pm W 23 34 - - - - - - - 13.3 1011.3 0.0
02/12:30pm W 22 33 - - - - - - - 13.4 1011.7 0.0
02/12:27pm W 24 34 - - - - - - - 13.5 1011.6 0.0
02/12:25pm W 25 34 - - - - - - - 13.4 1011.6 0.0
02/12:00pm W 24 34 - - - - - - - 13.0 1011.9 0.0
02/11:40am W 22 33 - - - - - - - 13.4 1012.0 0.0
02/11:30am W 22 29 - - - - - - - 13.0 1012.2 0.0
02/11:19am W 21 30 - - - - - - - 12.9 1012.2 0.0
02/11:00am W 19 29 - - - - - - - 13.3 1012.5 0.0
02/10:30am W 24 35 - - - - - - - 12.6 1012.5 0.0
02/10:17am W 19 30 - - - - - - - 12.9 1012.8 0.0
02/10:00am W 21 29 - - - - - - - 12.8 1012.9 0.0
02/09:43am W 20 28 - - - - - - - 12.7 1012.9 0.0
02/09:30am W 20 30 - - - - - - - 12.6 1013.0 0.0
02/09:29am W 20 30 - - - - - - - 12.9 1013.0 0.0
02/09:00am W 18 26 - - - - - - - 12.6 1012.9 1.0
02/08:46am W 19 28 - - - - - - - 12.7 1012.8 1.0
02/08:36am W 17 27 - - - - - - - 13.1 1012.6 1.0
02/08:32am W 18 25 - - - - - - - 13.3 1012.8 1.0
02/08:30am W 18 25 - - - - - - - 13.2 1012.8 1.0
02/08:21am W 18 28 - - - - - - - 12.5 1012.8 1.0
02/08:20am W 19 28 - - - - - - - 12.4 1012.8 1.0
02/08:10am W 17 27 - - - - - - - 12.7 1012.6 1.0
02/08:00am W 20 26 - - - - - - - 12.7 1012.5 1.0
02/07:41am W 21 27 - - - - - - - 12.1 1012.0 1.0
02/07:31am W 17 27 - - - - - - - 11.9 1011.9 1.0
02/07:30am W 16 24 - - - - - - - 12.0 1012.0 1.0
02/07:19am W 19 27 - - - - - - - 12.3 1011.9 1.0
02/07:07am W 18 29 - - - - - - - 11.8 1011.6 1.0
02/07:00am W 17 25 - - - - - - - 11.9 1011.7 1.0
02/06:30am W 21 27 - - - - - - - 11.8 1011.3 1.0
02/06:00am W 20 26 - - - - - - - 11.8 1011.2 1.0
02/05:30am W 21 27 - - - - - - - 11.9 1010.6 1.0
02/05:00am W 21 26 - - - - - - - 12.1 1010.3 1.0
02/04:44am W 23 30 - - - - - - - 12.1 1010.1 1.0
02/04:34am W 20 30 - - - - - - - 12.1 1010.0 1.0
02/04:30am W 20 25 - - - - - - - 12.2 1010.1 1.0
02/04:00am W 22 28 - - - - - - - 12.3 1009.5 1.0
02/03:30am W 20 27 - - - - - - - 12.4 1009.5 1.0
02/03:00am W 21 28 - - - - - - - 12.4 1009.5 1.0
02/02:34am W 20 29 - - - - - - - 12.3 1009.2 1.0
02/02:30am W 20 28 - - - - - - - 12.9 1009.4 1.0
02/02:00am W 27 39 - - - - - - - 14.1 1008.8 1.0
02/01:30am W 25 37 - - - - - - - 14.0 1008.7 1.0
02/01:00am W 28 40 - - - - - - - 13.8 1008.8 1.0
02/12:30am W 22 40 - - - - - - - 14.5 1009.2 0.4
02/12:00am W 22 40 - - - - - - Recent precip. 15.1 1009.1 0.4
 
Date/Time
EST
Wind Sea
Height
m
Swell Vis
km
Cloud Weather Temp
°C
Press
MSL
hPa
Rain since
9am
mm
Dir  Spd
kts
Gust
kts
Height
m
Period
s
Dir
01/11:30pm WNW 16 32 - - - - - - - 14.9 1009.3 0.4
01/11:01pm WNW 21 39 - - - - - - - 14.9 1009.9 0.2
01/11:00pm WNW 22 39 - - - - - - - 14.9 1009.9 0.2
01/10:57pm WNW 20 39 - - - - - - - 15.1 1009.7 0.2
01/10:51pm WNW 13 37 - - - - - - - 15.5 1009.9 0.2
01/10:30pm S 7 22 - - - - - - - 16.2 1009.8 0.0
01/10:00pm SSW 6 18 - - - - - - - 15.8 1009.8 0.0
01/09:30pm ESE 6 12 - - - - - - - 16.8 1010.1 0.0
01/09:00pm SE 4 10 - - - - - - - 17.0 1010.3 0.0
01/08:30pm W 9 20 - - - - - - - 17.2 1010.3 0.0
01/08:00pm SW 5 14 - - - - - - - 18.2 1010.2 0.0
01/07:30pm NW 11 30 - - - - - - - 18.4 1010.3 0.0
01/07:00pm NNE 8 25 - - - - - - - 18.6 1010.7 0.0
01/06:30pm NNW 9 19 - - - - - - - 18.8 1010.9 0.0
01/06:00pm NW 10 29 - - - - - - - 18.8 1010.9 0.0
01/05:30pm NNW 9 28 - - - - - - - 18.7 1010.8 0.0
01/05:00pm N 11 23 - - - - - - - 19.0 1010.8 0.0
01/04:59pm NNW 11 23 - - - - - - - 19.0 1010.7 0.0
01/04:48pm NNW 15 28 - - - - - - - 19.0 1010.6 0.0
01/04:30pm NNW 10 19 - - - - - - - 19.0 1010.9 0.0
01/04:00pm NNW 11 23 - - - - - - - 19.0 1011.4 0.0
01/03:30pm NNW 11 26 - - - - - - - 19.2 1011.3 0.0
01/03:17pm NNW 12 29 - - - - - - - 19.2 1011.4 0.0
01/03:01pm NNW 14 30 - - - - - - - 19.3 1011.3 0.0
01/03:00pm NNW 13 27 - - - - - - - 19.2 1011.2 0.0
01/02:30pm NNW 7 20 - - - - - - - 19.0 1011.7 0.0
01/02:04pm N 7 14 - - - - - - - 19.6 1012.0 0.0
01/02:00pm NNW 11 35 - - - - - - - 19.5 1011.9 0.0
01/01:52pm NNW 15 35 - - - - - - - 19.4 1011.8 0.0
01/01:42pm NNW 13 27 - - - - - - - 19.6 1012.3 0.0
01/01:33pm NNW 14 37 - - - - - - - 19.5 1012.6 0.0
01/01:31pm NNW 13 37 - - - - - - - 19.4 1012.3 0.0
01/01:30pm NNW 11 28 - - - - - - - 19.4 1012.4 0.0
01/01:00pm SSE 7 22 - - - - - - - 19.2 1013.5 0.0
01/12:30pm WSW 6 15 - - - - - - - 18.6 1014.5 0.0
01/12:21pm ESE 5 13 - - - - - - - 18.8 1014.7 0.0
01/12:10pm N 8 28 - - - - - - - 18.6 1014.6 0.0
01/12:00pm NE 5 23 - - - - - - - 18.7 1015.2 0.0
01/11:30am NNE 5 12 - - - - - - - 18.3 1015.6 0.0
01/11:00am W 5 12 - - - - - - - 17.9 1016.1 0.0
01/10:30am N 6 16 - - - - - - - 17.3 1016.5 0.0
01/10:24am NNE 8 17 - - - - - - - 17.3 1016.7 0.0
01/10:00am N 13 26 - - - - - - - 17.1 1016.8 0.0
01/09:59am N 13 26 - - - - - - - 17.0 1016.8 0.0
01/09:57am N 12 26 - - - - - - - 17.0 1016.7 0.0
01/09:40am NNW 15 32 - - - - - - - 17.0 1017.1 0.0
01/09:30am NNW 13 33 - - - - - - - 17.1 1017.4 0.0
01/09:25am N 12 33 - - - - - - - 17.1 1017.2 0.0
01/09:09am NNW 13 33 - - - - - - - 16.9 1017.8 0.0
01/09:01am NNW 12 27 - - - - - - - 16.8 1018.0 0.0
01/09:00am NNW 12 30 - - - - - - - 16.6 1018.1 0.0
01/08:50am NNW 11 30 - - - - - - - 16.8 1018.2 0.0
01/08:30am NNW 13 29 - - - - - - - 16.6 1018.6 0.0
01/08:00am NNW 14 29 - - - - - - - 16.0 1019.0 0.0
01/07:56am NNW 15 30 - - - - - - - 15.9 1018.9 0.0
01/07:30am N 12 27 - - - - - - - 16.0 1019.4 0.0
01/07:00am NNW 11 23 - - - - - - - 15.2 1019.5 0.0
01/06:30am NNW 14 25 - - - - - - - 14.7 1019.7 0.0
01/06:00am NNW 13 22 - - - - - - - 14.3 1019.8 0.0
01/05:30am N 9 16 - - - - - - - 14.0 1020.0 0.0
01/05:00am N 6 16 - - - - - - - 14.1 1020.3 0.0
01/04:30am NW 4 8 - - - - - - - 14.0 1020.7 0.0
01/04:00am N 6 13 - - - - - - - 14.1 1020.8 0.0
01/03:30am NNE 4 7 - - - - - - - 14.8 1021.1 0.0
01/03:00am NNW 6 14 - - - - - - - 14.7 1021.4 0.0
01/02:30am NNW 8 13 - - - - - - - 14.7 1021.9 0.0
01/02:00am NNW 8 13 - - - - - - - 12.0 1022.6 0.0
01/01:30am NE 4 8 - - - - - - - 9.7 1023.0 0.0
01/01:00am NE 4 6 - - - - - - - 9.6 1023.4 0.0
01/12:30am ENE 4 4 - - - - - - - 9.9 1023.8 0.0
01/12:00am ENE 5 6 - - - - - - - 10.0 1024.5 0.0
 
Date/Time
EST
Wind Sea
Height
m
Swell Vis
km
Cloud Weather Temp
°C
Press
MSL
hPa
Rain since
9am
mm
Dir  Spd
kts
Gust
kts
Height
m
Period
s
Dir
31/11:30pm E 3 4 - - - - - - - 10.3 1024.8 0.0
31/11:00pm CALM 0 0 - - - - - - - 10.3 1025.3 0.0
31/10:30pm ESE 3 4 - - - - - - - 10.1 1025.9 0.0
31/10:00pm SE 4 5 - - - - - - - 10.2 1026.1 0.0
31/09:30pm CALM 0 6 - - - - - - - 10.0 1026.2 0.0
31/09:00pm SW 2 4 - - - - - - - 10.0 1026.3 0.0
31/08:30pm SE 6 8 - - - - - - - 10.4 1026.5 0.0
31/08:00pm ENE 7 9 - - - - - - - 10.4 1026.7 0.0
31/07:30pm SW 2 6 - - - - - - - 10.4 1026.9 0.0
31/07:00pm SSE 1 4 - - - - - - - 10.3 1027.0 0.0
31/06:30pm WSW 9 15 - - - - - - - 10.2 1027.1 0.0
31/06:00pm WSW 11 15 - - - - - - - 10.3 1027.3 0.0
31/05:30pm W 12 19 - - - - - - - 10.6 1027.4 0.0
31/05:00pm W 13 19 - - - - - - - 11.0 1027.5 0.0
31/04:30pm W 14 19 - - - - - - - 11.4 1027.5 0.0
31/04:00pm W 11 17 - - - - - - - 11.7 1027.8 0.0
31/03:30pm W 12 19 - - - - - - - 11.8 1027.9 0.0
31/03:00pm W 14 21 - - - - - - - 12.6 1028.1 0.0
31/02:30pm W 11 20 - - - - - - - 13.1 1028.4 0.0
31/02:00pm W 13 21 - - - - - - - 13.0 1028.4 0.0
31/01:49pm W 15 23 - - - - - - - 13.1 1028.6 0.0
31/01:30pm W 15 27 - - - - - - - 12.7 1028.6 0.0
31/01:18pm W 17 27 - - - - - - - 12.5 1028.9 0.0
31/01:09pm W 20 27 - - - - - - - 12.6 1029.0 0.0
31/01:00pm W 17 26 - - - - - - - 12.5 1029.0 0.0
31/12:55pm W 17 27 - - - - - - - 12.5 1029.1 0.0
31/12:30pm W 21 29 - - - - - - - 12.8 1029.4 0.0
31/12:23pm W 21 29 - - - - - - - 12.9 1029.5 0.0
31/12:11pm W 17 28 - - - - - - - 12.8 1029.7 0.0
31/12:00pm W 19 27 - - - - - - - 12.9 1030.0 0.0
31/11:37am W 18 26 - - - - - - - 12.5 1030.3 0.0
31/11:30am W 17 26 - - - - - - - 12.6 1030.3 0.0
31/11:25am W 15 25 - - - - - - - 12.9 1030.3 0.0
31/11:06am W 15 24 - - - - - - - 12.5 1030.4 0.0
31/11:00am W 14 22 - - - - - - - 12.5 1030.4 0.0
31/10:50am W 15 25 - - - - - - - 12.3 1030.4 0.0
31/10:47am W 16 23 - - - - - - - 12.4 1030.4 0.0
31/10:30am W 16 26 - - - - - - - 12.3 1030.6 0.0
31/10:18am W 15 25 - - - - - - - 12.0 - 0.0
31/10:17am W 15 25 - - - - - - - 12.1 1030.7 0.0
31/10:00am W 19 25 - - - - - - - 11.9 1030.8 0.0
31/09:45am W 16 23 - - - - - - - 11.9 1030.8 0.0
31/09:30am W 17 27 - - - - - - - 11.9 1030.7 0.0
31/09:00am W 19 27 - - - - - - - 11.8 1030.7 0.0
31/08:30am W 24 31 - - - - - - - 11.5 1030.5 0.0
31/08:14am W 23 32 - - - - - - - 11.6 1030.3 0.0
31/08:00am W 21 31 - - - - - - - 11.6 1030.2 0.0
31/07:33am W 23 33 - - - - - - - 11.0 - 0.0
31/07:31am W 23 33 - - - - - - - 11.1 1029.8 0.0
31/07:30am W 24 33 - - - - - - - 11.0 1029.7 0.0
31/07:11am W 25 35 - - - - - - - 11.1 - 0.0
31/07:10am W 25 35 - - - - - - - 11.1 1029.4 0.0
31/07:00am W 27 35 - - - - - - - 11.0 1029.2 0.0
31/06:46am W 25 34 - - - - - - - 10.9 1029.1 0.0
31/06:34am W 26 36 - - - - - - - 10.9 1029.1 0.0
31/06:30am W 28 36 - - - - - - - 10.9 1029.1 0.0
31/06:19am W 26 36 - - - - - - - 10.7 - 0.0
31/06:16am W 26 36 - - - - - - - 10.7 1028.8 0.0
31/06:00am W 25 34 - - - - - - - 10.7 1028.9 0.0
31/05:52am W 25 33 - - - - - - - 10.7 1029.0 0.0
31/05:30am W 27 37 - - - - - - - 10.8 1028.7 0.0
31/05:00am W 28 38 - - - - - - - 10.9 1028.6 0.0

Other formats

Comma delimited format used in spreadsheet applications
http://www.bom.gov.au/fwo/IDT60701/IDT60701.94893.axf

JavaScript Object Notation format (JSON) in row-major order
http://www.bom.gov.au/fwo/IDT60701/IDT60701.94893.json

Data quality

Most of these data are generated automatically and are frequently updated. Quality checks on data are not normally performed. It is possible for incorrect values to appear. Refer to information at About Latest Weather Observations and please check the disclaimer before using these data.